User: anonymous   Login
Location: La Brionne
(46.1728°N, 1.7849°E)
Time: 22:55:50
(UTC+00:00)
Language:

CAS-6 - Orbit

View from above orbital plane
View from above orbital plane
View from above satellite
View from above satellite

Ground track
Ground track

The orbit data is extracted from the following two-line orbital elements,

1 44881U 19093C   23090.53958331  .00001934  00000-0  24812-3 0  9995
2 44881  97.8643 170.3128 0014294 336.5583  23.4979 14.82327198177294
Epoch (UTC): 31 March 2023 12:56:59
Eccentricity: 0.0014294
inclination: 97.8643°
perigee height: 612 km
apogee height: 632 km
right ascension of ascending node: 170.3128°
argument of perigee: 336.5583°
revolutions per day: 14.82327198
mean anomaly at epoch: 23.4979°
orbit number at epoch: 17729

The dashed part of the orbit path shows where the satellite is in the earth's shadow,  

DLR